| time (UTC) | temp C | wind direction | speed KPH | gust KPH | rain 1hr cm | rain 24hr cm | rain mn cm | humidity % | barometer mb |
| 20260510225554 | 13 | 11 | 0.0 | 6.4 | 0.00 | 0.00 | 0.00 | 39 | 1018.9 |
| 20260510225050 | 12 | 64 | 0.0 | 9.7 | 0.00 | 0.00 | 0.00 | 40 | 1018.9 |
| 20260510224546 | 13 | 101 | 3.2 | 11.3 | 0.00 | 0.00 | 0.00 | 39 | 1019.0 |
| 20260510224043 | 13 | 295 | 1.6 | 9.7 | 0.00 | 0.00 | 0.00 | 40 | 1018.9 |
| 20260510223541 | 13 | 52 | 3.2 | 12.9 | 0.00 | 0.00 | 0.00 | 38 | 1018.8 |
| 20260510223038 | 13 | 159 | 3.2 | 8.0 | 0.00 | 0.00 | 0.00 | 38 | 1018.8 |
| 20260510222535 | 13 | 203 | 6.4 | 8.0 | 0.00 | 0.00 | 0.00 | 38 | 1018.9 |
| 20260510222031 | 13 | 116 | 4.8 | 8.0 | 0.00 | 0.00 | 0.00 | 38 | 1018.7 |
| 20260510221527 | 13 | 158 | 4.8 | 9.7 | 0.00 | 0.00 | 0.00 | 37 | 1018.7 |
| 20260510221023 | 13 | 4 | 1.6 | 9.7 | 0.00 | 0.00 | 0.00 | 38 | 1018.7 |
| 20260510220520 | 13 | 157 | 4.8 | 12.9 | 0.00 | 0.00 | 0.00 | 37 | 1018.6 |
| 20260510220016 | 13 | 72 | 3.2 | 8.0 | 0.00 | 0.00 | 0.00 | 38 | 1018.7 |
| 20260510215514 | 13 | 147 | 6.4 | 8.0 | 0.00 | 0.00 | 0.00 | 36 | 1018.6 |
| 20260510215011 | 14 | 10 | 1.6 | 11.3 | 0.00 | 0.00 | 0.00 | 38 | 1018.5 |
| 20260510214503 | 13 | 122 | 6.4 | 11.3 | 0.00 | 0.00 | 0.00 | 38 | 1018.5 |
| 20260510213959 | 14 | 186 | 6.4 | 12.9 | 0.00 | 0.00 | 0.00 | 35 | 1018.4 |
| 20260510213456 | 14 | 330 | 8.0 | 14.5 | 0.00 | 0.00 | 0.00 | 35 | 1018.3 |
| 20260510212952 | 13 | 32 | 6.4 | 11.3 | 0.00 | 0.00 | 0.00 | 37 | 1018.3 |
| 20260510212449 | 13 | 311 | 4.8 | 11.3 | 0.00 | 0.00 | 0.00 | 36 | 1018.3 |
| 20260510211945 | 13 | 302 | 3.2 | 9.7 | 0.00 | 0.00 | 0.00 | 36 | 1018.1 |
| 20260510211443 | 14 | 338 | 4.8 | 14.5 | 0.00 | 0.00 | 0.00 | 36 | 1018.2 |
| 20260510210942 | 14 | 304 | 0.0 | 14.5 | 0.00 | 0.00 | 0.00 | 34 | 1018.1 |
| 20260510210438 | 13 | 10 | 3.2 | 11.3 | 0.00 | 0.00 | 0.00 | 35 | 1018.1 |
| 20260510205932 | 13 | 48 | 1.6 | 8.0 | 0.00 | 0.00 | 0.00 | 39 | 1017.9 |
| 20260510205427 | 13 | 320 | 0.0 | 9.7 | 0.00 | 0.00 | 0.00 | 36 | 1018.0 |
| 20260510204924 | 13 | 68 | 3.2 | 9.7 | 0.00 | 0.00 | 0.00 | 38 | 1018.0 |
| 20260510204420 | 13 | 225 | 4.8 | 9.7 | 0.00 | 0.00 | 0.00 | 37 | 1018.2 |
| 20260510203917 | 13 | 75 | 0.0 | 8.0 | 0.00 | 0.00 | 0.00 | 35 | 1018.1 |
| 20260510203414 | 13 | 325 | 3.2 | 8.0 | 0.00 | 0.00 | 0.00 | 36 | 1018.2 |
| 20260510202914 | 13 | 126 | 3.2 | 8.0 | 0.00 | 0.00 | 0.00 | 35 | 1018.4 |
| 20260510202410 | 14 | 338 | 11.3 | 11.3 | 0.00 | 0.00 | 0.00 | 36 | 1018.3 |
| 20260510201906 | 14 | 29 | 3.2 | 16.1 | 0.00 | 0.00 | 0.00 | 34 | 1018.1 |
| 20260510201404 | 15 | 329 | 3.2 | 9.7 | 0.00 | 0.00 | 0.00 | 34 | 1018.2 |
| 20260510200900 | 14 | 196 | 4.8 | 9.7 | 0.00 | 0.00 | 0.00 | 36 | 1018.3 |
| 20260510200359 | 15 | 50 | 3.2 | 11.3 | 0.00 | 0.00 | 0.00 | 36 | 1018.3 |
| 20260510195854 | 15 | 13 | 4.8 | 9.7 | 0.00 | 0.00 | 0.00 | 35 | 1018.3 |
| 20260510195351 | 14 | 6 | 0.0 | 11.3 | 0.00 | 0.00 | 0.00 | 37 | 1018.5 |
| 20260510194846 | 14 | 343 | 4.8 | 11.3 | 0.00 | 0.00 | 0.00 | 35 | 1018.5 |
| 20260510194343 | 14 | 105 | 4.8 | 11.3 | 0.00 | 0.00 | 0.00 | 34 | 1018.5 |
| 20260510193838 | 15 | 46 | 1.6 | 9.7 | 0.00 | 0.00 | 0.00 | 35 | 1018.5 |
| 20260510193333 | 14 | 334 | 3.2 | 8.0 | 0.00 | 0.00 | 0.00 | 34 | 1018.6 |
| 20260510192824 | 13 | 333 | 3.2 | 8.0 | 0.00 | 0.00 | 0.00 | 35 | 1018.4 |
| 20260510192319 | 15 | 331 | 4.8 | 11.3 | 0.00 | 0.00 | 0.00 | 34 | 1018.8 |
| 20260510191816 | 13 | 30 | 8.0 | 20.9 | 0.00 | 0.00 | 0.00 | 37 | 1018.5 |
| 20260510191312 | 15 | 353 | 6.4 | 8.0 | 0.00 | 0.00 | 0.00 | 38 | 1018.6 |
| 20260510190810 | 14 | 95 | 8.0 | 8.0 | 0.00 | 0.00 | 0.00 | 34 | 1018.7 |
| 20260510190308 | 13 | 22 | 4.8 | 9.7 | 0.00 | 0.00 | 0.00 | 36 | 1018.7 |
| 20260510185803 | 14 | 52 | 3.2 | 11.3 | 0.00 | 0.00 | 0.00 | 35 | 1018.8 |
| 20260510185301 | 13 | 48 | 3.2 | 12.9 | 0.00 | 0.00 | 0.00 | 37 | 1018.7 |
| 20260510184758 | 14 | 180 | 4.8 | 12.9 | 0.00 | 0.00 | 0.00 | 35 | 1018.8 |
| 20260510184254 | 13 | 351 | 3.2 | 8.0 | 0.00 | 0.00 | 0.00 | 36 | 1018.5 |
| 20260510183748 | 15 | 309 | 8.0 | 12.9 | 0.00 | 0.00 | 0.00 | 33 | 1018.5 |
| 20260510183244 | 15 | 45 | 3.2 | 12.9 | 0.00 | 0.00 | 0.00 | 36 | 1018.5 |
| 20260510182740 | 13 | 7 | 8.0 | 14.5 | 0.00 | 0.00 | 0.00 | 36 | 1018.4 |
| 20260510182236 | 15 | 11 | 8.0 | 9.7 | 0.00 | 0.00 | 0.00 | 37 | 1018.2 |
| 20260510181733 | 12 | 150 | 3.2 | 9.7 | 0.00 | 0.00 | 0.00 | 38 | 1018.3 |
| 20260510181231 | 13 | 184 | 3.2 | 16.1 | 0.00 | 0.00 | 0.00 | 36 | 1018.2 |
| 20260510180726 | 13 | 59 | 4.8 | 8.0 | 0.00 | 0.00 | 0.00 | 34 | 1018.3 |
| 20260510180224 | 15 | 219 | 0.0 | 6.4 | 0.00 | 0.00 | 0.00 | 38 | 1018.3 |
| 20260510175720 | 15 | 17 | 3.2 | 9.7 | 0.00 | 0.00 | 0.00 | 36 | 1018.2 |
| 20260510175216 | 15 | 158 | 3.2 | 9.7 | 0.00 | 0.00 | 0.00 | 36 | 1018.3 |
| 20260510174713 | 14 | 34 | 6.4 | 11.3 | 0.00 | 0.00 | 0.00 | 36 | 1018.2 |
| 20260510174211 | 14 | 296 | 3.2 | 8.0 | 0.00 | 0.00 | 0.00 | 35 | 1018.3 |
| 20260510173706 | 15 | 114 | 3.2 | 8.0 | 0.00 | 0.00 | 0.00 | 32 | 1018.1 |
| 20260510173202 | 15 | 60 | 6.4 | 16.1 | 0.00 | 0.00 | 0.00 | 35 | 1018.3 |
| 20260510172657 | 15 | 24 | 3.2 | 8.0 | 0.00 | 0.00 | 0.00 | 36 | 1018.2 |
| 20260510172154 | 13 | 258 | 4.8 | 17.7 | 0.00 | 0.00 | 0.00 | 35 | 1018.4 |
| 20260510171651 | 13 | 316 | 8.0 | 20.9 | 0.00 | 0.00 | 0.00 | 35 | 1018.4 |
| 20260510171149 | 14 | 152 | 3.2 | 12.9 | 0.00 | 0.00 | 0.00 | 34 | 1018.3 |
| 20260510170644 | 13 | 10 | 3.2 | 11.3 | 0.00 | 0.00 | 0.00 | 35 | 1018.4 |
| 20260510170141 | 13 | 277 | 6.4 | 12.9 | 0.00 | 0.00 | 0.00 | 36 | 1018.4 |
| 20260510165637 | 13 | 36 | 6.4 | 11.3 | 0.00 | 0.00 | 0.00 | 37 | 1018.4 |
| 20260510165133 | 13 | 1 | 4.8 | 8.0 | 0.00 | 0.00 | 0.00 | 43 | 1018.4 |
| 20260510164631 | 13 | 181 | 8.0 | 12.9 | 0.00 | 0.00 | 0.00 | 38 | 1018.6 |
| 20260510164127 | 13 | 87 | 4.8 | 6.4 | 0.00 | 0.00 | 0.00 | 37 | 1018.4 |
| 20260510163622 | 13 | 17 | 4.8 | 8.0 | 0.00 | 0.00 | 0.00 | 37 | 1018.4 |
| 20260510163119 | 12 | 345 | 11.3 | 19.3 | 0.00 | 0.00 | 0.00 | 38 | 1018.4 |
| 20260510162614 | 12 | 313 | 4.8 | 20.9 | 0.00 | 0.00 | 0.00 | 42 | 1018.4 |
| 20260510162110 | 12 | 17 | 6.4 | 12.9 | 0.00 | 0.00 | 0.00 | 39 | 1018.6 |
| 20260510161606 | 12 | 56 | 4.8 | 12.9 | 0.00 | 0.00 | 0.00 | 40 | 1018.3 |
| 20260510161104 | 12 | 321 | 9.7 | 9.7 | 0.00 | 0.00 | 0.00 | 41 | 1018.4 |
| 20260510160600 | 12 | 104 | 3.2 | 9.7 | 0.00 | 0.00 | 0.00 | 38 | 1018.5 |
| 20260510160100 | 12 | 35 | 0.0 | 9.7 | 0.00 | 0.00 | 0.00 | 42 | 1018.4 |
| 20260510155557 | 12 | 34 | 6.4 | 11.3 | 0.00 | 0.00 | 0.00 | 40 | 1018.3 |
| 20260510155053 | 12 | 312 | 6.4 | 14.5 | 0.00 | 0.00 | 0.00 | 38 | 1018.5 |
| 20260510154548 | 11 | 328 | 1.6 | 27.4 | 0.00 | 0.00 | 0.00 | 41 | 1018.4 |
| 20260510154044 | 11 | 335 | 8.0 | 16.1 | 0.00 | 0.00 | 0.00 | 39 | 1018.2 |
| 20260510153539 | 12 | 341 | 8.0 | 17.7 | 0.00 | 0.00 | 0.00 | 39 | 1018.2 |
| 20260510153036 | 12 | 14 | 6.4 | 11.3 | 0.00 | 0.00 | 0.00 | 40 | 1018.2 |
| 20260510152533 | 11 | 39 | 4.8 | 14.5 | 0.00 | 0.00 | 0.00 | 40 | 1017.9 |
| 20260510152030 | 11 | 20 | 4.8 | 17.7 | 0.00 | 0.00 | 0.00 | 44 | 1017.9 |
| 20260510151526 | 11 | 25 | 6.4 | 12.9 | 0.00 | 0.00 | 0.00 | 40 | 1018.0 |
| 20260510151024 | 11 | 143 | 3.2 | 11.3 | 0.00 | 0.00 | 0.00 | 42 | 1017.9 |
| 20260510150519 | 11 | 181 | 6.4 | 11.3 | 0.00 | 0.00 | 0.00 | 40 | 1017.8 |
| 20260510150015 | 10 | 39 | 6.4 | 12.9 | 0.00 | 0.00 | 0.00 | 45 | 1018.0 |
| 20260510145512 | 11 | 167 | 6.4 | 11.3 | 0.00 | 0.00 | 0.00 | 40 | 1017.8 |
| 20260510145008 | 11 | 36 | 4.8 | 9.7 | 0.00 | 0.00 | 0.00 | 42 | 1017.8 |
| 20260510144505 | 10 | 3 | 4.8 | 9.7 | 0.00 | 0.00 | 0.00 | 42 | 1017.6 |
| 20260510144000 | 10 | 330 | 0.0 | 11.3 | 0.00 | 0.00 | 0.00 | 46 | 1017.6 |
| 20260510143451 | 10 | 345 | 3.2 | 12.9 | 0.00 | 0.00 | 0.00 | 44 | 1017.7 |
| 20260510142948 | 10 | 348 | 6.4 | 12.9 | 0.00 | 0.00 | 0.00 | 45 | 1017.6 |
| 20260510142444 | 10 | 339 | 3.2 | 12.9 | 0.00 | 0.00 | 0.00 | 49 | 1017.4 |
| 20260510141935 | 10 | 33 | 9.7 | 16.1 | 0.00 | 0.00 | 0.00 | 44 | 1017.4 |
| 20260510141432 | 9 | 355 | 3.2 | 9.7 | 0.00 | 0.00 | 0.00 | 49 | 1017.5 |
| 20260510140929 | 9 | 346 | 4.8 | 6.4 | 0.00 | 0.00 | 0.00 | 49 | 1017.5 |
| 20260510140426 | 8 | 36 | 4.8 | 11.3 | 0.00 | 0.00 | 0.00 | 50 | 1017.4 |
| 20260510135924 | 9 | 84 | 3.2 | 8.0 | 0.00 | 0.00 | 0.00 | 47 | 1017.4 |
| 20260510135415 | 8 | 61 | 3.2 | 8.0 | 0.00 | 0.00 | 0.00 | 48 | 1017.5 |
| 20260510134913 | 8 | 31 | 4.8 | 9.7 | 0.00 | 0.00 | 0.00 | 49 | 1016.9 |
| 20260510134409 | 8 | 28 | 4.8 | 8.0 | 0.00 | 0.00 | 0.00 | 49 | 1017.4 |
| 20260510133905 | 8 | 121 | 3.2 | 4.8 | 0.00 | 0.00 | 0.00 | 51 | 1017.1 |
| 20260510133402 | 8 | 32 | 0.0 | 6.4 | 0.00 | 0.00 | 0.00 | 50 | 1017.4 |
| 20260510132857 | 8 | 28 | 4.8 | 8.0 | 0.00 | 0.00 | 0.00 | 46 | 1017.4 |
| 20260510132356 | 8 | 285 | 0.0 | 9.7 | 0.00 | 0.00 | 0.00 | 49 | 1017.1 |
| 20260510131852 | 8 | 319 | 6.4 | 8.0 | 0.00 | 0.00 | 0.00 | 52 | 1017.0 |
| 20260510131350 | 8 | 36 | 3.2 | 6.4 | 0.00 | 0.00 | 0.00 | 50 | 1017.0 |
| 20260510130846 | 7 | 53 | 4.8 | 6.4 | 0.00 | 0.00 | 0.00 | 51 | 1017.1 |
| 20260510130344 | 7 | 337 | 8.0 | 8.0 | 0.00 | 0.00 | 0.00 | 57 | 1017.0 |
| 20260510125840 | 7 | 0 | 1.6 | 4.8 | 0.00 | 0.00 | 0.00 | 56 | 1016.9 |
| 20260510125336 | 7 | 128 | 3.2 | 12.9 | 0.00 | 0.00 | 0.00 | 54 | 1017.0 |
| 20260510124834 | 8 | 345 | 1.6 | 4.8 | 0.00 | 0.00 | 0.00 | 54 | 1016.8 |
| 20260510124330 | 7 | 76 | 0.0 | 4.8 | 0.00 | 0.00 | 0.00 | 56 | 1016.9 |
| 20260510123826 | 7 | 346 | 4.8 | 8.0 | 0.00 | 0.00 | 0.00 | 57 | 1016.7 |
| 20260510123321 | 6 | 9 | 4.8 | 6.4 | 0.00 | 0.00 | 0.00 | 58 | 1016.6 |
| 20260510122818 | 6 | 357 | 1.6 | 6.4 | 0.00 | 0.00 | 0.00 | 59 | 1016.4 |
| 20260510122314 | 7 | 6 | 1.6 | 6.4 | 0.00 | 0.00 | 0.00 | 63 | 1016.6 |
| 20260510121811 | 6 | 58 | 0.0 | 4.8 | 0.00 | 0.00 | 0.00 | 64 | 1016.4 |
| 20260510121308 | 6 | 81 | 1.6 | 8.0 | 0.00 | 0.00 | 0.00 | 64 | 1016.4 |
| 20260510120805 | 6 | 48 | 0.0 | 3.2 | 0.00 | 0.00 | 0.00 | 67 | 1016.3 |
| 20260510120302 | 5 | 333 | 0.0 | 6.4 | 0.00 | 0.00 | 0.00 | 69 | 1016.4 |
| 20260510115757 | 5 | 159 | 0.0 | 3.2 | 0.00 | 0.00 | 0.00 | 73 | 1016.2 |
| 20260510115255 | 5 | 111 | 3.2 | 3.2 | 0.00 | 0.00 | 0.00 | 75 | 1016.1 |
| 20260510114749 | 4 | 118 | 1.6 | 3.2 | 0.00 | 0.00 | 0.00 | 75 | 1015.9 |
| 20260510114247 | 4 | 128 | 0.0 | 3.2 | 0.00 | 0.00 | 0.00 | 75 | 1016.1 |
| 20260510113742 | 3 | 131 | 1.6 | 3.2 | 0.00 | 0.00 | 0.00 | 77 | 1015.8 |
| 20260510113240 | 3 | 120 | 0.0 | 3.2 | 0.00 | 0.00 | 0.00 | 79 | 1015.9 |
| 20260510112736 | 3 | 103 | 0.0 | 1.6 | 0.00 | 0.00 | 0.00 | 80 | 1016.0 |
| 20260510112233 | 2 | 138 | 0.0 | 1.6 | 0.00 | 0.00 | 0.00 | 80 | 1015.9 |
| 20260510111728 | 2 | 112 | 0.0 | 3.2 | 0.00 | 0.00 | 0.00 | 80 | 1015.9 |
| 20260510111226 | 2 | 130 | 1.6 | 3.2 | 0.00 | 0.00 | 0.00 | 80 | 1015.9 |
| 20260510110725 | 2 | 113 | 1.6 | 1.6 | 0.00 | 0.00 | 0.00 | 79 | 1015.7 |
| 20260510110224 | 2 | 102 | 0.0 | 1.6 | 0.00 | 0.00 | 0.00 | 78 | 1015.8 |
| 20260510105723 | 2 | 108 | 1.6 | 3.2 | 0.00 | 0.00 | 0.00 | 79 | 1015.6 |
| 20260510105218 | 2 | 89 | 0.0 | 3.2 | 0.00 | 0.00 | 0.00 | 78 | 1015.4 |
| 20260510104715 | 2 | 89 | 0.0 | 3.2 | 0.00 | 0.00 | 0.00 | 78 | 1015.4 |
| 20260510104212 | 2 | 114 | 1.6 | 3.2 | 0.00 | 0.00 | 0.00 | 79 | 1015.3 |
| 20260510103708 | 2 | 106 | 3.2 | 3.2 | 0.00 | 0.00 | 0.00 | 79 | 1015.3 |
| 20260510103206 | 2 | 131 | 0.0 | 3.2 | 0.00 | 0.00 | 0.00 | 79 | 1014.9 |
| 20260510102700 | 2 | 81 | 0.0 | 3.2 | 0.00 | 0.00 | 0.00 | 78 | 1015.2 |
| 20260510102156 | 2 | 95 | 1.6 | 3.2 | 0.00 | 0.00 | 0.00 | 78 | 1015.0 |
| 20260510101654 | 2 | 102 | 1.6 | 3.2 | 0.00 | 0.00 | 0.00 | 77 | 1014.8 |
| 20260510101152 | 2 | 86 | 1.6 | 3.2 | 0.00 | 0.00 | 0.00 | 78 | 1015.1 |
| 20260510100653 | 2 | 99 | 0.0 | 3.2 | 0.00 | 0.00 | 0.00 | 77 | 1015.0 |
| 20260510100151 | 2 | 83 | 0.0 | 3.2 | 0.00 | 0.00 | 0.00 | 76 | 1014.9 |
| 20260510095646 | 3 | 109 | 0.0 | 3.2 | 0.00 | 0.00 | 0.00 | 76 | 1014.9 |
| 20260510095141 | 3 | 100 | 1.6 | 4.8 | 0.00 | 0.00 | 0.00 | 76 | 1014.7 |
| 20260510094640 | 3 | 108 | 1.6 | 3.2 | 0.00 | 0.00 | 0.00 | 75 | 1014.7 |
| 20260510094136 | 3 | 82 | 1.6 | 3.2 | 0.00 | 0.00 | 0.00 | 74 | 1014.6 |
| 20260510093632 | 3 | 113 | 1.6 | 4.8 | 0.00 | 0.00 | 0.00 | 73 | 1014.6 |
| 20260510093130 | 3 | 102 | 1.6 | 3.2 | 0.00 | 0.00 | 0.00 | 74 | 1014.4 |
| 20260510092626 | 3 | 96 | 1.6 | 4.8 | 0.00 | 0.00 | 0.00 | 73 | 1014.4 |
| 20260510092121 | 3 | 113 | 1.6 | 3.2 | 0.00 | 0.00 | 0.00 | 72 | 1014.2 |
| 20260510091618 | 3 | 99 | 1.6 | 3.2 | 0.00 | 0.00 | 0.00 | 72 | 1014.4 |
| 20260510091114 | 3 | 69 | 3.2 | 3.2 | 0.00 | 0.00 | 0.00 | 72 | 1014.3 |
| 20260510090611 | 3 | 58 | 0.0 | 3.2 | 0.00 | 0.00 | 0.00 | 73 | 1014.3 |
| 20260510090107 | 3 | 132 | 3.2 | 3.2 | 0.00 | 0.00 | 0.00 | 74 | 1014.1 |
| 20260510085602 | 3 | 105 | 0.0 | 3.2 | 0.00 | 0.00 | 0.00 | 72 | 1013.8 |
| 20260510085058 | 3 | 84 | 1.6 | 3.2 | 0.00 | 0.00 | 0.00 | 71 | 1013.9 |
| 20260510084554 | 3 | 71 | 0.0 | 3.2 | 0.00 | 0.00 | 0.00 | 70 | 1013.9 |
| 20260510084051 | 4 | 72 | 1.6 | 3.2 | 0.00 | 0.00 | 0.00 | 69 | 1013.7 |
| 20260510083548 | 4 | 119 | 0.0 | 3.2 | 0.00 | 0.00 | 0.00 | 68 | 1013.4 |
| 20260510083044 | 5 | 80 | 1.6 | 4.8 | 0.00 | 0.00 | 0.00 | 68 | 1013.6 |
| 20260510082541 | 5 | 88 | 3.2 | 3.2 | 0.00 | 0.00 | 0.00 | 66 | 1013.6 |
| 20260510082037 | 5 | 88 | 3.2 | 4.8 | 0.00 | 0.00 | 0.00 | 66 | 1013.8 |
| 20260510081532 | 5 | 108 | 3.2 | 3.2 | 0.00 | 0.00 | 0.00 | 65 | 1013.3 |
| 20260510081028 | 5 | 340 | 3.2 | 8.0 | 0.00 | 0.00 | 0.00 | 63 | 1013.3 |
| 20260510080527 | 6 | 356 | 3.2 | 9.7 | 0.00 | 0.00 | 0.00 | 63 | 1013.2 |
| 20260510080024 | 5 | 350 | 3.2 | 8.0 | 0.00 | 0.00 | 0.00 | 63 | 1013.3 |
| 20260510075521 | 6 | 70 | 3.2 | 6.4 | 0.00 | 0.00 | 0.00 | 63 | 1013.1 |
| 20260510075018 | 6 | 331 | 3.2 | 4.8 | 0.00 | 0.00 | 0.00 | 63 | 1013.2 |
| 20260510074516 | 6 | 0 | 0.0 | 4.8 | 0.00 | 0.00 | 0.00 | 63 | 1012.8 |
| 20260510074011 | 6 | 350 | 3.2 | 4.8 | 0.00 | 0.00 | 0.00 | 61 | 1012.8 |
| 20260510073507 | 6 | 66 | 3.2 | 4.8 | 0.00 | 0.00 | 0.00 | 61 | 1012.7 |
| 20260510073004 | 6 | 353 | 4.8 | 12.9 | 0.00 | 0.00 | 0.00 | 61 | 1012.7 |
| 20260510072501 | 6 | 72 | 3.2 | 6.4 | 0.00 | 0.00 | 0.00 | 62 | 1012.7 |
| 20260510071956 | 6 | 333 | 3.2 | 8.0 | 0.00 | 0.00 | 0.00 | 62 | 1012.5 |
| 20260510071452 | 6 | 332 | 6.4 | 11.3 | 0.00 | 0.00 | 0.00 | 62 | 1012.5 |
| 20260510070951 | 7 | 354 | 3.2 | 8.0 | 0.00 | 0.00 | 0.00 | 62 | 1012.2 |
| 20260510070448 | 7 | 38 | 1.6 | 11.3 | 0.00 | 0.00 | 0.00 | 62 | 1012.1 |
| 20260510065943 | 7 | 51 | 4.8 | 19.3 | 0.00 | 0.00 | 0.00 | 63 | 1012.2 |
| 20260510065441 | 7 | 331 | 4.8 | 4.8 | 0.00 | 0.00 | 0.00 | 65 | 1012.1 |
| 20260510064936 | 7 | 344 | 3.2 | 8.0 | 0.00 | 0.00 | 0.00 | 65 | 1012.1 |
| 20260510064434 | 7 | 37 | 4.8 | 8.0 | 0.00 | 0.00 | 0.00 | 66 | 1012.1 |
| 20260510063931 | 7 | 41 | 0.0 | 3.2 | 0.00 | 0.00 | 0.00 | 66 | 1012.0 |
| 20260510063426 | 7 | 34 | 1.6 | 6.4 | 0.00 | 0.00 | 0.00 | 64 | 1011.9 |
| 20260510062924 | 7 | 11 | 4.8 | 8.0 | 0.00 | 0.00 | 0.00 | 64 | 1011.9 |
| 20260510062419 | 7 | 354 | 4.8 | 8.0 | 0.00 | 0.00 | 0.00 | 64 | 1011.9 |
| 20260510061915 | 7 | 324 | 4.8 | 6.4 | 0.00 | 0.00 | 0.00 | 66 | 1011.6 |
| 20260510061412 | 7 | 72 | 3.2 | 4.8 | 0.00 | 0.00 | 0.00 | 65 | 1011.4 |
| 20260510060908 | 7 | 60 | 3.2 | 6.4 | 0.00 | 0.00 | 0.00 | 65 | 1011.3 |
| 20260510060405 | 8 | 31 | 3.2 | 4.8 | 0.00 | 0.00 | 0.00 | 65 | 1011.5 |
| 20260510055901 | 8 | 332 | 6.4 | 6.4 | 0.00 | 0.00 | 0.00 | 62 | 1011.3 |
| 20260510055401 | 8 | 56 | 4.8 | 9.7 | 0.00 | 0.00 | 0.00 | 63 | 1011.3 |
| 20260510054854 | 8 | 11 | 4.8 | 9.7 | 0.00 | 0.00 | 0.00 | 63 | 1011.1 |
| 20260510054350 | 8 | 47 | 11.3 | 17.7 | 0.00 | 0.00 | 0.00 | 63 | 1011.1 |
| 20260510053845 | 8 | 338 | 4.8 | 11.3 | 0.00 | 0.00 | 0.00 | 64 | 1011.1 |
| 20260510053341 | 8 | 45 | 4.8 | 9.7 | 0.00 | 0.00 | 0.00 | 64 | 1011.0 |
| 20260510052838 | 9 | 41 | 6.4 | 8.0 | 0.00 | 0.00 | 0.00 | 64 | 1011.0 |
| 20260510052333 | 9 | 64 | 4.8 | 11.3 | 0.00 | 0.00 | 0.00 | 64 | 1010.8 |
| 20260510051830 | 8 | 11 | 3.2 | 6.4 | 0.00 | 0.00 | 0.00 | 66 | 1010.8 |
| 20260510051327 | 8 | 29 | 3.2 | 8.0 | 0.00 | 0.00 | 0.00 | 66 | 1010.7 |
| 20260510050824 | 8 | 76 | 3.2 | 4.8 | 0.00 | 0.00 | 0.00 | 68 | 1010.7 |
| 20260510050320 | 8 | 44 | 4.8 | 4.8 | 0.00 | 0.00 | 0.00 | 69 | 1010.6 |
| 20260510045818 | 8 | 88 | 3.2 | 4.8 | 0.00 | 0.00 | 0.00 | 71 | 1010.3 |
| 20260510045314 | 7 | 94 | 3.2 | 3.2 | 0.00 | 0.00 | 0.00 | 72 | 1010.4 |
| 20260510044811 | 7 | 92 | 1.6 | 3.2 | 0.00 | 0.00 | 0.00 | 72 | 1010.2 |
| 20260510044308 | 8 | 124 | 1.6 | 3.2 | 0.00 | 0.00 | 0.00 | 72 | 1010.1 |
| 20260510043804 | 8 | 96 | 1.6 | 3.2 | 0.00 | 0.00 | 0.00 | 71 | 1010.1 |
| 20260510043301 | 8 | 84 | 3.2 | 3.2 | 0.00 | 0.00 | 0.00 | 71 | 1009.8 |
| 20260510042758 | 8 | 89 | 1.6 | 3.2 | 0.00 | 0.00 | 0.00 | 70 | 1009.5 |
| 20260510042254 | 8 | 78 | 1.6 | 3.2 | 0.00 | 0.00 | 0.00 | 70 | 1009.6 |
| 20260510041750 | 9 | 75 | 0.0 | 3.2 | 0.00 | 0.00 | 0.00 | 68 | 1009.6 |
| 20260510041248 | 9 | 70 | 1.6 | 3.2 | 0.00 | 0.00 | 0.00 | 65 | 1009.5 |
| 20260510040745 | 10 | 97 | 1.6 | 3.2 | 0.00 | 0.00 | 0.00 | 64 | 1009.5 |
| 20260510040242 | 10 | 89 | 3.2 | 3.2 | 0.00 | 0.00 | 0.00 | 64 | 1009.5 |
| 20260510035737 | 10 | 89 | 3.2 | 4.8 | 0.00 | 0.25 | 0.25 | 64 | 1009.3 |
| 20260510035227 | 10 | 95 | 3.2 | 4.8 | 0.00 | 0.25 | 0.25 | 63 | 1009.1 |
| 20260510034723 | 10 | 124 | 1.6 | 3.2 | 0.00 | 0.25 | 0.25 | 63 | 1009.2 |
| 20260510034222 | 10 | 104 | 0.0 | 1.6 | 0.00 | 0.25 | 0.25 | 62 | 1009.0 |
| 20260510033717 | 10 | 67 | 3.2 | 4.8 | 0.00 | 0.25 | 0.25 | 62 | 1009.0 |
| 20260510033216 | 11 | 56 | 1.6 | 3.2 | 0.00 | 0.25 | 0.25 | 61 | 1009.0 |
| 20260510032711 | 11 | 62 | 0.0 | 4.8 | 0.00 | 0.25 | 0.25 | 59 | 1009.0 |
| 20260510032207 | 11 | 88 | 1.6 | 4.8 | 0.00 | 0.25 | 0.25 | 58 | 1009.0 |
| 20260510031702 | 12 | 31 | 1.6 | 8.0 | 0.00 | 0.25 | 0.25 | 58 | 1008.6 |
| 20260510031159 | 12 | 19 | 3.2 | 4.8 | 0.00 | 0.25 | 0.25 | 57 | 1008.6 |
| 20260510030658 | 12 | 329 | 4.8 | 6.4 | 0.00 | 0.25 | 0.25 | 56 | 1008.6 |
| 20260510030156 | 11 | 15 | 0.0 | 9.7 | 0.00 | 0.25 | 0.25 | 58 | 1008.5 |
| 20260510025653 | 11 | 96 | 3.2 | 3.2 | 0.00 | 0.25 | 0.25 | 59 | 1008.4 |
| 20260510025150 | 12 | 139 | 0.0 | 3.2 | 0.00 | 0.25 | 0.25 | 58 | 1008.5 |
| 20260510024648 | 12 | 101 | 1.6 | 3.2 | 0.00 | 0.25 | 0.25 | 57 | 1008.3 |
| 20260510024144 | 12 | 323 | 4.8 | 8.0 | 0.00 | 0.25 | 0.25 | 55 | 1008.4 |
| 20260510023639 | 12 | 347 | 1.6 | 8.0 | 0.00 | 0.25 | 0.25 | 55 | 1008.3 |
| 20260510023137 | 12 | 322 | 4.8 | 6.4 | 0.00 | 0.25 | 0.25 | 54 | 1008.2 |
| 20260510022637 | 13 | 358 | 4.8 | 14.5 | 0.00 | 0.25 | 0.25 | 54 | 1008.0 |
| 20260510022132 | 13 | 24 | 8.0 | 9.7 | 0.00 | 0.25 | 0.25 | 54 | 1008.1 |
| 20260510021627 | 13 | 42 | 3.2 | 11.3 | 0.00 | 0.25 | 0.25 | 53 | 1007.9 |
| 20260510021126 | 13 | 335 | 8.0 | 17.7 | 0.00 | 0.25 | 0.25 | 52 | 1008.0 |
| 20260510020620 | 13 | 53 | 8.0 | 11.3 | 0.00 | 0.25 | 0.25 | 52 | 1007.8 |
| 20260510020116 | 13 | 332 | 0.0 | 9.7 | 0.00 | 0.25 | 0.25 | 52 | 1007.6 |
| 20260510015612 | 13 | 307 | 8.0 | 9.7 | 0.00 | 0.25 | 0.25 | 50 | 1007.3 |
| 20260510015108 | 13 | 324 | 6.4 | 8.0 | 0.00 | 0.25 | 0.25 | 51 | 1007.3 |
| 20260510014603 | 13 | 358 | 4.8 | 6.4 | 0.00 | 0.25 | 0.25 | 51 | 1007.3 |
| 20260510014101 | 13 | 309 | 6.4 | 8.0 | 0.00 | 0.25 | 0.25 | 50 | 1007.0 |
| 20260510013555 | 14 | 338 | 8.0 | 17.7 | 0.00 | 0.25 | 0.25 | 49 | 1006.9 |
| 20260510013051 | 14 | 3 | 3.2 | 16.1 | 0.00 | 0.25 | 0.25 | 49 | 1006.8 |
| 20260510012545 | 14 | 327 | 6.4 | 17.7 | 0.00 | 0.25 | 0.25 | 48 | 1006.5 |
| 20260510012042 | 15 | 89 | 6.4 | 12.9 | 0.00 | 0.25 | 0.25 | 47 | 1006.2 |
| 20260510011541 | 15 | 26 | 11.3 | 19.3 | 0.00 | 0.25 | 0.25 | 47 | 1006.2 |
| 20260510011037 | 15 | 17 | 8.0 | 19.3 | 0.00 | 0.25 | 0.25 | 46 | 1005.9 |
| 20260510010534 | 15 | 27 | 3.2 | 14.5 | 0.00 | 0.25 | 0.25 | 47 | 1005.7 |
| 20260510010032 | 16 | 34 | 6.4 | 17.7 | 0.00 | 0.25 | 0.25 | 46 | 1005.6 |
| 20260510005527 | 16 | 351 | 1.6 | 6.4 | 0.00 | 0.25 | 0.25 | 48 | 1005.3 |
| 20260510005025 | 16 | 337 | 3.2 | 8.0 | 0.00 | 0.25 | 0.25 | 50 | 1005.2 |
| 20260510004522 | 16 | 330 | 4.8 | 8.0 | 0.00 | 0.25 | 0.25 | 48 | 1005.2 |
| 20260510004020 | 16 | 194 | 4.8 | 9.7 | 0.00 | 0.25 | 0.25 | 49 | 1005.1 |
| 20260510003516 | 16 | 335 | 3.2 | 6.4 | 0.00 | 0.25 | 0.25 | 51 | 1004.9 |
| 20260510003012 | 16 | 149 | 3.2 | 6.4 | 0.00 | 0.25 | 0.25 | 51 | 1004.7 |
| 20260510002508 | 16 | 303 | 3.2 | 8.0 | 0.00 | 0.25 | 0.25 | 50 | 1004.7 |
| 20260510002005 | 16 | 156 | 3.2 | 4.8 | 0.00 | 0.25 | 0.25 | 50 | 1004.7 |
| 20260510001502 | 16 | 58 | 0.0 | 4.8 | 0.00 | 0.25 | 0.25 | 49 | 1004.5 |
| 20260510001000 | 16 | 12 | 4.8 | 6.4 | 0.00 | 0.25 | 0.25 | 49 | 1004.5 |
| 20260510000456 | 17 | 295 | 3.2 | 8.0 | 0.00 | 0.25 | 0.25 | 50 | 1004.5 |
| 20260509235952 | 17 | 14 | 3.2 | 11.3 | 0.00 | 0.25 | 0.25 | 48 | 1004.3 |
| 20260509235449 | 17 | 165 | 3.2 | 11.3 | 0.00 | 0.25 | 0.25 | 48 | 1004.2 |
| 20260509234945 | 16 | 133 | 0.0 | 8.0 | 0.00 | 0.25 | 0.25 | 50 | 1004.1 |
| 20260509234442 | 17 | 128 | 3.2 | 4.8 | 0.00 | 0.25 | 0.25 | 51 | 1004.1 |
| 20260509233940 | 17 | 213 | 0.0 | 8.0 | 0.00 | 0.25 | 0.25 | 50 | 1004.1 |
| 20260509233437 | 17 | 232 | 0.0 | 3.2 | 0.00 | 0.25 | 0.25 | 48 | 1004.0 |
| 20260509232933 | 17 | 278 | 0.0 | 4.8 | 0.00 | 0.25 | 0.25 | 48 | 1003.9 |
| 20260509232431 | 17 | 124 | 0.0 | 11.3 | 0.00 | 0.25 | 0.25 | 47 | 1003.9 |
| 20260509231927 | 17 | 187 | 4.8 | 6.4 | 0.00 | 0.25 | 0.25 | 47 | 1003.8 |
| 20260509231424 | 18 | 268 | 8.0 | 9.7 | 0.00 | 0.25 | 0.25 | 46 | 1004.0 |
| 20260509230922 | 18 | 117 | 3.2 | 8.0 | 0.00 | 0.25 | 0.25 | 46 | 1003.8 |
| 20260509230418 | 18 | 119 | 3.2 | 16.1 | 0.00 | 0.25 | 0.25 | 44 | 1004.0 |